• en France
  • Liste des pays
  • À 7 jours
  • Température de l'eau
  • Carte satellitaire
  • Carte météo
  • Widgets météo
  • user-avatar
    Se connecter

    Météo par heure à San Luis

    Ce jour, 25 Septembre, Mardi

    Heure Température Précipitation Vent Pression Humidité
    00:00 +19°C° 0 mm 5 m/s 698 mmHg 37%
    01:00 +19°C° 0 mm 4 m/s 697 mmHg 38%
    02:00 +19°C° 0 mm 5 m/s 697 mmHg 41%
    03:00 +17°C° 0 mm 5 m/s 697 mmHg 44%
    04:00 +17°C° 0 mm 5 m/s 697 mmHg 47%
    05:00 +17°C° 0 mm 5 m/s 696 mmHg 50%
    06:00 +19°C° 0 mm 5 m/s 697 mmHg 47%
    07:00 +20°C° 0 mm 5 m/s 697 mmHg 44%
    08:00 +21°C° 0 mm 4 m/s 697 mmHg 40%
    09:00 +22°C° 0 mm 4 m/s 697 mmHg 37%
    10:00 +25°C° 0 mm 4 m/s 697 mmHg 34%
    11:00 +26°C° 0 mm 4 m/s 697 mmHg 32%
    12:00 +27°C° 0 mm 3 m/s 697 mmHg 30%
    13:00 +28°C° 0 mm 3 m/s 696 mmHg 29%
    14:00 +29°C° 0 mm 3 m/s 696 mmHg 28%
    15:00 +28°C° 0 mm 3 m/s 696 mmHg 28%
    16:00 +28°C° 0 mm 3 m/s 695 mmHg 29%
    17:00 +28°C° 0 mm 4 m/s 695 mmHg 29%
    18:00 +26°C° 0 mm 5 m/s 695 mmHg 33%
    19:00 +24°C° 0 mm 6 m/s 695 mmHg 37%
    20:00 +22°C° 0 mm 7 m/s 696 mmHg 41%
    21:00 +22°C° 0 mm 6 m/s 696 mmHg 46%
    22:00 +21°C° 0 mm 6 m/s 696 mmHg 50%
    23:00 +20°C° 0 mm 5 m/s 696 mmHg 55%

    Demain, 26 Septembre, Mercredi

    Heure Température Précipitation Vent Pression Humidité
    00:00 +20°C° 0 mm 5 m/s 696 mmHg 58%
    01:00 +20°C° 0 mm 5 m/s 696 mmHg 61%
    02:00 +19°C° 0 mm 5 m/s 696 mmHg 64%
    03:00 +19°C° 0.2 mm 5 m/s 696 mmHg 68%
    04:00 +19°C° 0.2 mm 5 m/s 696 mmHg 72%
    05:00 +17°C° 0.2 mm 5 m/s 696 mmHg 76%
    06:00 +19°C° 0.5 mm 5 m/s 696 mmHg 73%
    07:00 +19°C° 0.5 mm 6 m/s 697 mmHg 71%
    08:00 +20°C° 0.5 mm 6 m/s 697 mmHg 68%
    09:00 +21°C° 0.9 mm 6 m/s 697 mmHg 63%
    10:00 +22°C° 0.9 mm 7 m/s 698 mmHg 59%
    11:00 +23°C° 0.9 mm 7 m/s 698 mmHg 54%
    12:00 +24°C° 0.7 mm 7 m/s 698 mmHg 52%
    13:00 +24°C° 0.7 mm 7 m/s 697 mmHg 50%
    14:00 +24°C° 0.7 mm 7 m/s 697 mmHg 49%
    15:00 +24°C° 0.4 mm 7 m/s 697 mmHg 50%
    16:00 +24°C° 0.4 mm 8 m/s 696 mmHg 52%
    17:00 +23°C° 0.4 mm 8 m/s 696 mmHg 53%
    18:00 +22°C° 0.3 mm 8 m/s 696 mmHg 59%
    19:00 +20°C° 0.3 mm 8 m/s 697 mmHg 66%
    20:00 +18°C° 0.3 mm 8 m/s 697 mmHg 72%
    21:00 +18°C° 0.3 mm 8 m/s 697 mmHg 73%
    22:00 +17°C° 0.3 mm 7 m/s 697 mmHg 75%
    23:00 +17°C° 0.3 mm 7 m/s 697 mmHg 76%

    Après-demain, 27 Septembre, Jeudi

    Heure Température Précipitation Vent Pression Humidité
    00:00 +17°C° 0.1 mm 7 m/s 697 mmHg 76%
    01:00 +17°C° 0.1 mm 7 m/s 696 mmHg 76%
    02:00 +17°C° 0.1 mm 6 m/s 696 mmHg 77%
    03:00 +17°C° 0 mm 6 m/s 696 mmHg 77%
    04:00 +17°C° 0 mm 5 m/s 696 mmHg 78%
    05:00 +18°C° 0 mm 4 m/s 695 mmHg 79%
    06:00 +18°C° 0 mm 4 m/s 696 mmHg 77%
    07:00 +19°C° 0 mm 4 m/s 696 mmHg 74%
    08:00 +19°C° 0 mm 4 m/s 696 mmHg 72%
    09:00 +20°C° 0.2 mm 5 m/s 697 mmHg 68%
    10:00 +21°C° 0.2 mm 5 m/s 697 mmHg 63%
    11:00 +23°C° 0.2 mm 6 m/s 697 mmHg 59%
    12:00 +23°C° 0.1 mm 6 m/s 696 mmHg 56%
    13:00 +24°C° 0.1 mm 6 m/s 695 mmHg 53%
    14:00 +26°C° 0.1 mm 6 m/s 695 mmHg 49%
    15:00 +26°C° 0 mm 5 m/s 694 mmHg 48%
    16:00 +26°C° 0 mm 5 m/s 694 mmHg 47%
    17:00 +27°C° 0 mm 4 m/s 693 mmHg 46%
    18:00 +25°C° 0 mm 4 m/s 694 mmHg 52%
    19:00 +23°C° 0 mm 4 m/s 694 mmHg 57%
    20:00 +22°C° 0 mm 3 m/s 694 mmHg 63%
    21:00 +21°C° 0 mm 4 m/s 694 mmHg 65%
    22:00 +21°C° 0 mm 6 m/s 694 mmHg 67%
    23:00 +21°C° 0 mm 7 m/s 694 mmHg 68%

    28 Septembre, Vendredi

    Heure Température Précipitation Vent Pression Humidité
    00:00 +20°C° 0 mm 7 m/s 694 mmHg 70%
    01:00 +20°C° 0 mm 6 m/s 694 mmHg 71%
    02:00 +19°C° 0 mm 6 m/s 693 mmHg 72%
    03:00 +19°C° 0 mm 6 m/s 693 mmHg 74%
    04:00 +19°C° 0 mm 6 m/s 693 mmHg 75%
    05:00 +17°C° 0 mm 6 m/s 693 mmHg 77%
    06:00 +20°C° 0 mm 6 m/s 693 mmHg 72%
    07:00 +21°C° 0 mm 6 m/s 694 mmHg 68%
    08:00 +22°C° 0 mm 7 m/s 694 mmHg 63%
    09:00 +24°C° 0 mm 7 m/s 694 mmHg 55%
    10:00 +27°C° 0 mm 7 m/s 694 mmHg 48%
    11:00 +28°C° 0 mm 7 m/s 694 mmHg 40%
    12:00 +29°C° 0 mm 6 m/s 694 mmHg 37%
    13:00 +30°C° 0 mm 6 m/s 693 mmHg 33%
    14:00 +32°C° 0 mm 6 m/s 692 mmHg 29%
    15:00 +32°C° 0 mm 5 m/s 692 mmHg 29%
    16:00 +32°C° 0 mm 4 m/s 691 mmHg 28%
    17:00 +31°C° 0 mm 3 m/s 691 mmHg 28%
    18:00 +29°C° 0.1 mm 4 m/s 691 mmHg 35%
    19:00 +27°C° 0.1 mm 4 m/s 691 mmHg 42%
    20:00 +25°C° 0.1 mm 4 m/s 691 mmHg 50%
    21:00 +25°C° 0 mm 5 m/s 691 mmHg 54%
    22:00 +23°C° 0 mm 6 m/s 691 mmHg 59%
    23:00 +23°C° 0 mm 8 m/s 691 mmHg 64%

    29 Septembre, Samedi

    Heure Température Précipitation Vent Pression Humidité
    00:00 +22°C° 0 mm 8 m/s 690 mmHg 66%
    01:00 +22°C° 0 mm 8 m/s 690 mmHg 69%
    02:00 +22°C° 0 mm 9 m/s 689 mmHg 71%
    03:00 +22°C° 0 mm 9 m/s 689 mmHg 72%
    04:00 +22°C° 0 mm 9 m/s 689 mmHg 73%
    05:00 +22°C° 0 mm 9 m/s 688 mmHg 74%
    06:00 +23°C° 0 mm 9 m/s 689 mmHg 69%
    07:00 +23°C° 0 mm 9 m/s 689 mmHg 64%
    08:00 +24°C° 0 mm 9 m/s 690 mmHg 59%
    09:00 +27°C° 0 mm 10 m/s 690 mmHg 49%
    10:00 +29°C° 0 mm 10 m/s 690 mmHg 39%
    11:00 +32°C° 0 mm 10 m/s 689 mmHg 30%
    12:00 +33°C° 0 mm 11 m/s 689 mmHg 23%
    13:00 +36°C° 0 mm 11 m/s 688 mmHg 17%
    14:00 +37°C° 0 mm 11 m/s 688 mmHg 10%
    15:00 +37°C° 0 mm 12 m/s 687 mmHg 9%
    16:00 +36°C° 0 mm 12 m/s 687 mmHg 8%
    17:00 +36°C° 0 mm 12 m/s 686 mmHg 7%
    18:00 +33°C° 0 mm 11 m/s 687 mmHg 8%
    19:00 +29°C° 0 mm 9 m/s 687 mmHg 9%
    20:00 +27°C° 0 mm 7 m/s 688 mmHg 11%
    21:00 +26°C° 0 mm 7 m/s 688 mmHg 11%
    22:00 +26°C° 0 mm 6 m/s 689 mmHg 12%
    23:00 +25°C° 0 mm 5 m/s 689 mmHg 13%

    30 Septembre, Dimanche

    Heure Température Précipitation Vent Pression Humidité
    00:00 +23°C° 0 mm 5 m/s 689 mmHg 16%
    01:00 +22°C° 0 mm 6 m/s 690 mmHg 20%
    02:00 +21°C° 0 mm 7 m/s 690 mmHg 23%
    03:00 +18°C° 0 mm 8 m/s 691 mmHg 27%
    04:00 +16°C° 0 mm 9 m/s 691 mmHg 30%
    05:00 +14°C° 0 mm 11 m/s 692 mmHg 33%
    06:00 +13°C° 0 mm 11 m/s 693 mmHg 33%
    07:00 +13°C° 0 mm 11 m/s 694 mmHg 33%
    08:00 +12°C° 0 mm 11 m/s 696 mmHg 33%
    09:00 +13°C° 0 mm 11 m/s 696 mmHg 31%
    10:00 +14°C° 0 mm 11 m/s 696 mmHg 30%
    11:00 +16°C° 0 mm 11 m/s 697 mmHg 28%
    12:00 +16°C° 0 mm 11 m/s 696 mmHg 27%
    13:00 +17°C° 0 mm 11 m/s 696 mmHg 26%
    14:00 +17°C° 0 mm 10 m/s 696 mmHg 25%
    15:00 +17°C° 0 mm 10 m/s 695 mmHg 26%
    16:00 +16°C° 0 mm 10 m/s 695 mmHg 27%
    17:00 +14°C° 0 mm 10 m/s 695 mmHg 27%
    18:00 +14°C° 0 mm 10 m/s 696 mmHg 28%
    19:00 +13°C° 0 mm 9 m/s 696 mmHg 29%
    20:00 +12°C° 0 mm 9 m/s 697 mmHg 31%
    21:00 +12°C° 0 mm 9 m/s 697 mmHg 33%
    22:00 +11°C° 0 mm 8 m/s 697 mmHg 35%
    23:00 +10°C° 0 mm 8 m/s 697 mmHg 37%
    Voir plus